Regional Weather Roundup
Issued by NWS Sioux Falls, SD

Home | Current Version | Previous Version | Text Only | Print | Product List | Glossary Off
Versions: 1 2 3 4 5 6 7 8 9 10 11 12 13 14 15 16 17 18 19 20 21 22 23 24 25 26 27 28 29 30 31 32 33 34 35 36 37 38 39 40 41 42 43 44 45 46 47 48 49 50

000
ASUS43 KFSD 242110
RWRFSD

WEATHER ROUNDUP FOR SE SOUTH DAKOTA/SW MINNESOTA/NW IOWA
NATIONAL WEATHER SERVICE SIOUX FALLS SD
400 PM CDT FRI OCT 24 2014

NOTE: "FAIR" INDICATES FEW OR NO CLOUDS BELOW 12,000 FEET WITH NO
SIGNIFICANT WEATHER AND OR OBSTRUCTIONS TO VISIBILITY.


SDZ038>040-050-052>070-242200-
SOUTHEAST SOUTH DAKOTA

CITY           SKY/WX    TMP DP  RH WIND       PRES   REMARKS
CHAMBERLAIN    MOSUNNY   76  32  20 W5        29.92S
HURON          SUNNY     81  33  17 NW13      29.88R
MADISON        FAIR      75  36  23 NW14      29.90R
MITCHELL       SUNNY     78  36  21 NW6       29.90R HAZE
SIOUX FALLS    CLOUDY    75  38  26 NW10      29.88S
WINNER         FAIR      79  25  13 VRB3      29.93S
YANKTON        MOSUNNY   73  41  31 NW5       29.90R
$$

MNZ071-072-080-081-089-090-097-098-242200-
SOUTHWEST MINNESOTA

CITY           SKY/WX    TMP DP  RH WIND       PRES   REMARKS
FAIRMONT       MOSUNNY   73  19  13 W7        29.85S
JACKSON        MOSUNNY   75  37  25 W13       29.87R
LUVERNE        SUNNY     77  34  20 NW9       29.88S
MARSHALL       SUNNY     75  36  23 W9        29.85R
MONTEVIDEO     MOSUNNY   77  41  27 NW5       29.85R
PIPESTONE      SUNNY     73  36  25 NW12      29.89R
REDWOOD FALLS  MOSUNNY   73  47  39 NW8       29.84R
TRACY          SUNNY     77  37  23 NW12      29.87R
WINDOM         MOSUNNY   75  37  25 W12G17    29.86R
WORTHINGTON    MOSUNNY   73  37  27 NW14      29.89R
$$

IAZ001>003-012>014-020>022-031-032-NEZ013-014-SDZ071-242200-
NORTHWEST IOWA

CITY           SKY/WX    TMP DP  RH WIND       PRES   REMARKS
CHEROKEE       MOSUNNY   72  51  48 NW6       29.88S
DENISON        PTSUNNY   75  54  46 SW8       29.87S
ESTHERVILLE    PTSUNNY   73  48  41 W7        29.86R
LE MARS        MOSUNNY   75  46  35 VRB5      29.89R
ORANGE CITY    MOSUNNY   75  43  31 NW7       29.89R
SHELDON        SUNNY     75  45  33 VRB7G14   29.88R
SIOUX CITY     MOSUNNY   77  46  33 NW8       29.89R
SPENCER        FAIR      74  50  42 W9        29.88R
STORM LAKE     PTSUNNY   72  52  49 W8        29.90R
$$

ABBREVIATIONS USED IN REMARKS
   TC - TEMPERATURE IN CELSIUS
  WCI - WIND CHILL INDEX
   HX - HEAT INDEX
  VSB - VISIBILITY




USA.gov is the U.S. government's official web portal to all federal, state and local government web resources and services.